Weather in Mykolaiv

Ukraine / Mykolaiv District     46˚58′30″N   31˚59′40″E
temp.,
°C
wind,
m/s
gust,
m/s
humid.,
%
clouds,
%
prec.,
mm/h
press.,
hPa
HPBL,
m
1 december, tue
tue123:00+5˚nne4882100 0.0 1023445
02:00+5˚nne5981100 0.0 1022534
05:00+4˚nne71081100 0.0 1022514
08:00+4˚nne5882100 0.0 1022481
11:00+6˚ne4776100 0.0 1022701
14:00+5˚ne5770100 0.0 1022751
17:00+4˚ne4673100 0.0 1022686
20:00+4˚ne4775100 0.0 1023616
2 december, wed
wed223:00+3˚ne468399 0.0 1023454
02:00+3˚nne4686100 0.1 1023373
05:00+3˚nne4688100 0.1 1023335
08:00+4˚ne3587100 0.1 1024348
11:00+5˚ene3582100 0.1 1024428
14:00+5˚ne2482100 0.2 1024368
17:00+5˚ne2487100 0.1 1024286
20:00+5˚ene2389100 0.2 1024221
3 december, thu
thu323:00+5˚nne0191100 0.0 102439
02:00+3˚wnw119577 0.0 102523
05:00+2˚nw119625 0.0 102422
08:00+2˚wnw009419 0.0 102522
11:00+6˚ese127586 0.0 1025297
14:00+8˚e226170 0.0 1024467
17:00+6˚e356850 0.0 1024144
20:00+5˚ese367861 0.0 1024160
4 december, fri
fri423:00+4˚ese47881 0.0 1024153
02:00+3˚ese47940 0.0 1023163
05:00+2˚e48930 0.0 1023176
08:00+2˚e410953 0.0 1023240
11:00+6˚e588125 0.0 1023368
14:00+5˚e688657 0.0 1022421
17:00+5˚e6988100 0.0 1022439
20:00+6˚e61085100 0.0 1023452
5 december, sat
sat523:00+4˚e4109491 0.0 1023312
02:00+4˚e5119582 0.0 1023290
05:00+4˚e5119567 0.0 1023332
08:00+4˚e6119375 0.0 1024406
11:00+6˚e697999 0.0 1024461
14:00+8˚e696981 0.0 1024527
17:00+5˚e5118011 0.0 1024387
20:00+3˚ese6128723 0.0 1025389